Regional Weather Roundup
Issued by NWS

Home | Current Version | Previous Version | Graphics & Text | Print | Product List | Glossary On
Versions: 1 2 3 4 5 6 7 8 9 10 11 12 13 14 15 16 17 18 19 20 21 22 23 24 25 26 27
000
ASUS45 KBOU 180607
RWRCO

WEATHER ROUNDUP FOR COLORADO
NATIONAL WEATHER SERVICE DENVER/BOULDER CO
1200 AM MDT WED OCT 18 2017

NOTE: "FAIR" INDICATES FEW OR NO CLOUDS BELOW 12000 FEET WITH NO
SIGNIFICANT WEATHER AND/OR OBSTRUCTIONS TO VISIBILITY.

COZ001>005-013-030-031-180700-
...NORTHWEST COLORADO...

CITY           SKY/WX    TMP DP  RH WIND       PRES   REMARKS
CRAIG          FAIR      30  19  63 CALM      30.23F
HAYDEN         FAIR      39  17  41 E12       30.25F
MEEKER         FAIR      36  17  46 NE5       30.25S
RABBIT EARS PA FAIR      39   9  28 W8        30.41F
STEAMBOAT SPGS FAIR      35  17  47 SE3       30.26S
WALDEN         FAIR      39  10  30 SE6       30.30S
$$

COZ006>008-011-180700-
...WEST CENTRAL VALLEYS...

CITY           SKY/WX    TMP DP  RH WIND       PRES   REMARKS
GRAND JUNCTION FAIR      49  13  23 E6        30.20S
MONTROSE       FAIR      41  15  35 S6        30.27S
EAGLE          FAIR      36  16  44 E3        30.31R
RIFLE          FAIR      39  18  42 CALM      30.25S
DELTA          FAIR      42  22  46 CALM      30.24S
NUCLA          FAIR      43   5  21 SE6       30.29S
$$

COZ017>023-064>068-180700-
...SOUTHWEST COLORADO...

CITY           SKY/WX    TMP DP  RH WIND       PRES   REMARKS
DURANGO        FAIR      40  15  36 N5        30.30S
CORTEZ         FAIR      34  16  47 NE9       30.26F WCI  27
PAGOSA SPRINGS FAIR      36  14  40 CALM      30.35F
TELLURIDE      NOT AVBL
WOLF CREEK PAS FAIR      36   7  30 SW13      30.60S
$$

COZ009-010-012-014-032>034-037-058>063-180700-
...CENTRAL COLORADO...

CITY           SKY/WX    TMP DP  RH WIND       PRES   REMARKS
ASPEN          FAIR      36  15  42 SW8       30.33S
BUENA VISTA    FAIR      37  13  37 CALM      30.32S
COPPER MTN     FAIR      45  -4  13 SW3       30.52S
BERTHOUD PASS  FAIR      34  27  75 NW30G36   30.50S WCI  20
COTTONWOOD PAS FAIR      54  -8   8 SW8       30.40F
GUNNISON       FAIR      27  13  55 CALM      30.38R
KREMMLING      FAIR      34  19  55 CALM      30.32S
LEADVILLE      FAIR      31   4  31 NE7       30.40F WCI  24
MONARCH PASS   FAIR      36   0  21 SW23      30.62F
SALIDA         NOT AVBL
SUNLIGHT       FAIR      37   1  22 SW9       30.50S
WILKERSON PASS FAIR      43  -2  15 W9        30.48F
$$

COZ069>075-180700-
...SAN LUIS VALLEY/SANGRE DE CRISTO MOUNTAINS...

CITY           SKY/WX    TMP DP  RH WIND       PRES   REMARKS
ALAMOSA        FAIR      32  16  51 E6        30.31S WCI  26
DEL NORTE      FAIR      43  16  34 SW10      30.34S
LA VETA PASS   FAIR      43   9  24 MISG      30.52F
SAGUACHE       FAIR      37   5  25 NW12      30.34S
$$

COZ035-036-038>040-180700-
...NORTHERN COLORADO FRONT RANGE...

CITY           SKY/WX    TMP DP  RH WIND       PRES   REMARKS
DENVER INTL AP FAIR      55  18  23 SW14      30.08F
DMNS CITY PARK   N/A     51  21  30 SE8       30.08S
AURORA         PTCLDY    50  19  29 S10       30.10F
FRONT RANGE AP FAIR      54  23  30 S14G22    30.09F
ERIE MUNI ARPT FAIR      56  17  21 SW5       30.11F
BOULDER MUN AP FAIR      54  23  30 CALM      30.06F
CENTENNIAL     FAIR      49  19  30 S7        30.11F
BROOMFIELD     FAIR      54  19  26 W10       30.09F
FORT COLLINS   FAIR      53  29  39 N6        30.05F
LONGMONT       FAIR      46  29  51 CALM      30.07F
$$

COZ041-046-047-076>085-087-088-180700-
...PIKES PEAK/PALMER DIVIDE AND SOUTHERN FOOTHILLS...

CITY           SKY/WX    TMP DP  RH WIND       PRES   REMARKS
COLO. SPRINGS  FAIR      45  22  40 NE5       30.18F
A. F. ACADEMY  FAIR      39  18  43 N9        30.18F
SCHRIEVER AFB  FAIR      51  19  28 MISG      30.17F
CHEYENNE MTN   FAIR      54  11  17 CALM      30.15F
ELLICOTT       FAIR     N/A N/A N/A CALM      30.16F
FALCON         FAIR      44  18  35 W6        30.21F
FORT CARSON    FAIR      45  19  35 NW8       30.15F
LIMON          FAIR      34  27  75 N5        30.12F WCI  30
MONUMENT HILL  FAIR      46  16  29 SW8       30.21F
CANON CITY     CLEAR     50  19  29 W10       30.14F
WALSENBURG     NOT AVBL
TRINIDAD       FAIR      45  26  47 NW10      30.13F
$$

COZ042>045-048>051-090-091-180700-
...NORTHEAST COLORADO...

CITY           SKY/WX    TMP DP  RH WIND       PRES   REMARKS
GREELEY ARPT   FAIR      38  31  76 CALM      30.05F
AKRON          FAIR      56  21  25 SW16      30.03F
BURLINGTON     FAIR      47  33  58 S12       30.04F
WRAY           FAIR      50  27  40 W9        30.00F
YUMA           FAIR      45  28  53 SW9       30.00F
STERLING       FAIR      37  28  70 SW6       30.00S
HOLYOKE        FAIR      43  30  61 SW6       29.99F
FORT MORGAN    FAIR      45  20  38 W8        30.04S
$$

COZ086-089-092>099-180700-
...SOUTHEAST COLORADO...

CITY           SKY/WX    TMP DP  RH WIND       PRES   REMARKS
PUEBLO         FAIR      44  26  49 W6        30.10F
LA JUNTA       FAIR      49  32  52 W10       30.05F
LAMAR          FAIR      41  32  70 SW3       30.02F
SPRINGFIELD      N/A     38  34  85 NW3       30.06F
$$




USA.gov is the U.S. government's official web portal to all federal, state and local government web resources and services.